[[{"header":{"parameterUnit":"m.s-1","parameterCategory":1,"la1":30.2991,"la2":30.254,"lo1":-89.0895,"lo2":-89.0444,"dy":0.0017,"dx":0.0017,"nx":28,"ny":28,"refTime":"2024-03-13T09:00:00:Z","depth":0,"parameterNumber":2,"parameterNumberName":"U-component_of_WINDS"},"data":[0,0,0,0,0,0,0,0,0,0,0,0,0,0,0,0,0,0,0,0,0,0,0,0,0,0,0,0,0,0,0,0,0,0,0,0,0,0,0,0,0,0,0,0,0,0,0,0,0,0,0,0,0,0,0,0,0,0,-5.349,-5.3491,0,-5.3577,-5.3578,-5.3579,-5.35,-5.3496,-5.3493,-5.349,-5.358,-5.3585,-5.359,0,0,0,0,0,0,0,0,0,0,0,0,0,-5.3258,-5.3263,-5.349,-5.3491,-5.3492,-5.3577,-5.3578,-5.3579,-5.35,-5.3496,-5.3492,-5.3489,-5.3578,-5.3584,-5.3591,0,0,0,0,0,0,0,0,0,0,0,0,0,-5.3354,-5.3265,-5.349,-5.3463,-5.3462,-5.3577,-5.3578,-5.358,-5.3501,-5.3496,-5.3491,-5.3487,-5.3576,-5.3584,-5.3592,-5.3738,0,0,-5.3616,-5.362,0,0,0,0,0,0,0,0,-5.3348,-5.3362,-5.3466,-5.3465,-5.3464,-5.3523,-5.3529,-5.3633,-5.3502,-5.3486,-5.349,-5.3485,-5.3565,-5.3573,-5.36,-5.3742,-5.3746,-5.3617,-5.3622,-5.3625,-5.3628,0,0,0,0,0,0,0,-5.3342,-5.3358,-5.3525,-5.3468,-5.3466,-5.3448,-5.3456,-5.3548,-5.3551,-5.3487,-5.3482,-5.3493,-5.3563,-5.3593,-5.3602,-5.3747,-5.3617,-5.3624,-5.3629,-5.3632,-5.4015,-5.4021,0,0,0,0,0,0,-5.3338,-5.3353,-5.3522,-5.3527,-5.3393,-5.3456,-5.3465,-5.3509,-5.355,-5.3552,-5.3497,-5.3489,-5.3581,-5.3592,-5.3605,-5.3778,-5.3625,-5.3633,-5.3638,-5.401,-5.4017,-5.4022,0,0,0,0,0,0,-5.3333,-5.3354,-5.3518,-5.3439,-5.3458,-5.3465,-5.3515,-5.3513,-5.3542,-5.3558,-5.3558,-5.3526,-5.3578,-5.3593,-5.3706,-5.378,-5.3637,-5.3644,-5.4004,-5.4012,-5.402,-5.4127,0,0,0,0,0,0,-5.3327,-5.3352,-5.3407,-5.3441,-5.3463,-5.3617,-5.3519,-5.3518,-5.3556,-5.3546,-5.3585,-5.3587,-5.3575,-5.3694,-5.3714,-5.3789,-5.365,-5.3997,-5.4008,-5.4017,-5.4117,-5.4138,-5.4156,0,0,0,0,0,-5.3319,-5.3434,-5.341,-5.3431,-5.3531,-5.3622,-5.3634,-5.3618,-5.3563,-5.3618,-5.3629,-5.3586,-5.377,-5.3706,-5.3728,-5.3806,-5.3992,-5.4005,-5.4016,-5.4108,-5.4134,-5.4155,0,0,0,0,0,0,-5.3408,-5.3437,-5.3411,-5.3541,-5.3579,-5.3608,-5.3677,-5.3646,-5.3701,-5.3689,-5.3668,-5.3677,-5.3796,-5.3813,-5.3742,-5.3951,-5.3872,-5.3889,-5.3935,-5.3959,-5.3978,-5.397,-5.3657,0,0,0,0,0,-5.3443,-5.3513,-5.3536,-5.3647,-5.3668,-5.367,-5.3709,-5.3694,-5.3733,-5.3748,-5.3767,-5.3807,-5.3874,-5.3918,-5.3981,-5.4121,-5.4128,-5.4186,-5.4205,-5.4221,-5.4235,-5.4311,-5.4336,-5.4062,-5.4062,-5.4062,0,0,-5.3515,-5.354,-5.3585,-5.3666,-5.3694,-5.3768,-5.3684,-5.3765,-5.382,-5.3761,-5.3867,-5.3883,-5.3927,-5.4054,-5.4111,-5.4072,-5.4313,-5.4237,-5.4249,-5.4254,-5.4326,-5.4352,-5.4375,-5.407,-5.4069,-5.4067,0,0,-5.3683,-5.371,-5.3806,-5.3837,-5.3881,-5.3882,-5.3905,-5.394,-5.3948,-5.4055,-5.4013,-5.4079,-5.4194,-5.4227,-5.4259,-5.4446,-5.4408,-5.4467,-5.4567,-5.4641,-5.4663,-5.4682,-5.4747,-5.4771,-5.4481,-5.4482,-5.4482,0,-5.3766,-5.3875,-5.3859,-5.3944,-5.3981,-5.3933,-5.403,-5.4061,-5.4124,-5.4151,-5.4107,-5.4252,-5.4278,-5.4412,-5.4458,-5.4487,-5.4513,-5.446,-5.4661,-5.468,-5.4697,-5.4759,-5.4784,-5.4488,-5.4488,-5.4487,-5.4486,0,-5.3976,-5.4053,-5.4126,-5.4187,-5.4233,-5.4324,-5.4323,-5.4372,-5.4354,-5.436,-5.4471,-5.4502,-5.457,-5.4602,-5.4585,-5.4735,-5.4709,-5.4664,-5.4583,-5.4731,-5.4788,-5.4812,-5.4498,-5.4496,-5.4494,-5.4492,0,0,-5.4197,-5.4252,-5.4279,-5.4307,-5.4355,-5.4414,-5.4505,-5.4571,-5.4613,-5.466,-5.4735,-5.4836,-5.4796,-5.4832,-5.482,-5.4886,-5.503,-5.4832,-5.4833,-5.4866,-5.5196,-5.5227,-5.5255,-5.5008,-5.5013,-5.5016,-5.5192,0,-5.4366,-5.4521,-5.4511,-5.4657,-5.4729,-5.4687,-5.4765,-5.4804,-5.4814,-5.4876,-5.4888,-5.4959,-5.49,-5.4922,-5.4986,-5.4999,-5.5096,-5.4987,-5.5077,-5.508,-5.5063,-5.5285,-5.5318,-5.5482,-5.5215,-5.5219,-5.5221,0,-5.4581,-5.4636,-5.4789,-5.4828,-5.4858,-5.4929,-5.499,-5.5051,-5.5095,-5.5098,-5.5141,-5.5119,-5.5211,-5.5132,-5.526,-5.5186,-5.5223,-5.5236,-5.5242,-5.5246,-5.5156,-5.5293,-5.5534,-5.5557,-5.5257,-5.5254,-5.5252,0,-5.4724,-5.4837,-5.4944,-5.497,-5.5018,-5.5069,-5.5092,-5.5131,-5.5173,-5.5228,-5.5255,-5.5321,-5.5356,-5.5408,-5.5404,-5.5347,-5.5534,-5.5454,-5.5538,-5.5538,-5.5575,-5.5572,-5.5822,-5.5605,-5.5605,-5.5604,-5.5604,0,-5.4911,-5.5006,-5.5009,-5.5074,-5.518,-5.517,-5.5276,-5.5293,-5.5329,-5.5398,-5.5368,-5.5433,-5.5426,-5.5492,-5.5491,-5.5596,-5.5614,-5.5618,-5.5616,-5.5618,-5.5618,-5.5639,-5.5626,-5.5611,-5.5609,-5.5608,-5.5607,0,-5.5086,-5.5092,-5.5205,-5.5244,-5.5256,-5.5332,-5.5365,-5.5428,-5.5437,-5.5524,-5.5544,-5.5559,-5.5636,-5.5639,-5.5728,-5.5727,-5.5854,-5.5841,-5.5839,-5.5835,-5.5917,-5.5908,-5.6187,-5.6222,-5.5986,-5.5988,-5.599,0,-5.5203,-5.5275,-5.5322,-5.5366,-5.5392,-5.5463,-5.5506,-5.5501,-5.5547,-5.5605,-5.5661,-5.5735,-5.5793,-5.5919,-5.5937,-5.6006,-5.5992,-5.6085,-5.6001,-5.6002,-5.599,-5.5984,-5.5991,-5.61,-5.6102,-5.6104,-5.6106,0,-5.5408,-5.5409,-5.5471,-5.5537,-5.559,-5.5641,-5.5688,-5.5726,-5.5727,-5.5781,-5.5859,-5.5905,-5.5997,-5.6071,-5.6138,-5.6162,-5.6135,-5.6134,-5.6156,-5.6157,-5.6151,-5.6153,-5.588,-5.6126,-5.6124,-5.6122,-5.6121,-5.612,-5.5555,-5.5618,-5.5662,-5.5734,-5.577,-5.5816,-5.5876,-5.5895,-5.596,-5.6033,-5.6028,-5.6115,-5.616,-5.6247,-5.6278,-5.6346,-5.6314,-5.6347,-5.6355,-5.6362,-5.637,-5.6145,-5.6359,-5.6359,-5.6358,-5.6358,-5.6357,0,-5.5757,-5.5784,-5.5851,-5.5919,-5.5976,-5.5948,-5.6,-5.605,-5.6127,-5.6172,-5.6231,-5.6322,-5.6395,-5.6422,-5.6493,-5.6543,-5.6532,-5.6561,-5.6555,-5.6561,-5.6395,-5.6368,-5.6569,-5.6569,-5.6569,-5.6569,-5.6569,-5.6569,-5.5868,-5.5972,-5.5979,-5.6102,-5.6129,-5.6213,-5.6246,-5.6289,-5.6324,-5.6427,-5.6488,-5.6506,-5.6544,-5.6618,-5.6684,-5.669,-5.6717,-5.6751,-5.6751,-5.6595,-5.6573,-5.6553,-5.6526,-5.6758,-5.6758,-5.6911,-5.6912,-5.6914]},{"header":{"parameterUnit":"m.s-1","parameterCategory":1,"la1":30.2991,"la2":30.254,"lo1":-89.0895,"lo2":-89.0444,"dy":0.0017,"dx":0.0017,"nx":28,"ny":28,"refTime":"2024-03-13T09:00:00:Z","depth":0,"parameterNumber":3,"parameterNumberName":"V-component_of_WINDS"},"data":[0,0,0,0,0,0,0,0,0,0,0,0,0,0,0,0,0,0,0,0,0,0,0,0,0,0,0,0,0,0,0,0,0,0,0,0,0,0,0,0,0,0,0,0,0,0,0,0,0,0,0,0,0,0,0,0,0,0,1.3839,1.3839,0,1.3873,1.3874,1.3874,1.389,1.389,1.389,1.389,1.3923,1.3924,1.3925,0,0,0,0,0,0,0,0,0,0,0,0,0,1.3787,1.3788,1.3839,1.3839,1.384,1.3873,1.3874,1.3874,1.389,1.389,1.389,1.389,1.3923,1.3924,1.3925,0,0,0,0,0,0,0,0,0,0,0,0,0,1.3814,1.3789,1.3839,1.3852,1.3853,1.3873,1.3874,1.3874,1.389,1.389,1.389,1.389,1.3922,1.3924,1.3925,1.3934,0,0,1.3929,1.393,0,0,0,0,0,0,0,0,1.3813,1.3816,1.3849,1.3851,1.3853,1.3877,1.3868,1.3894,1.389,1.3876,1.389,1.389,1.3908,1.391,1.3917,1.3935,1.3937,1.3929,1.393,1.3931,1.3931,0,0,0,0,0,0,0,1.3811,1.3815,1.3852,1.385,1.3852,1.3856,1.386,1.3873,1.3891,1.3877,1.3879,1.3882,1.3909,1.3915,1.3918,1.3937,1.3929,1.393,1.3931,1.3932,1.3967,1.3968,0,0,0,0,0,0,1.3807,1.3813,1.3851,1.3853,1.3832,1.3857,1.3861,1.3869,1.3891,1.3895,1.3882,1.3883,1.3913,1.3916,1.3919,1.3932,1.3931,1.3932,1.3933,1.3967,1.3967,1.3968,0,0,0,0,0,0,1.3806,1.381,1.385,1.3834,1.3839,1.3858,1.3867,1.387,1.3877,1.3895,1.3899,1.3886,1.3913,1.3917,1.3931,1.3933,1.3932,1.3934,1.3967,1.3967,1.3967,1.3958,0,0,0,0,0,0,1.3804,1.381,1.3813,1.3834,1.384,1.3861,1.3867,1.3871,1.3879,1.3881,1.3899,1.3903,1.3913,1.3929,1.3932,1.3935,1.3935,1.3967,1.3967,1.3967,1.3958,1.3957,1.3957,0,0,0,0,0,1.3803,1.3808,1.3813,1.3818,1.3844,1.3861,1.3865,1.3878,1.3879,1.3883,1.3896,1.3902,1.3933,1.393,1.3934,1.3937,1.3967,1.3967,1.3967,1.3958,1.3957,1.3957,0,0,0,0,0,0,1.3785,1.3811,1.3817,1.3829,1.3843,1.3864,1.3868,1.3876,1.3889,1.389,1.3905,1.3909,1.3922,1.3931,1.3927,1.3948,1.395,1.3952,1.3942,1.3942,1.3941,1.3939,1.3936,0,0,0,0,0,1.3783,1.3795,1.3816,1.3825,1.3832,1.3849,1.3857,1.3866,1.3881,1.3886,1.39,1.3913,1.3927,1.3935,1.3947,1.3959,1.3965,1.3964,1.3964,1.3964,1.3964,1.3973,1.3974,1.3969,1.3969,1.3969,0,0,1.3778,1.3794,1.38,1.3822,1.3834,1.3846,1.3854,1.3866,1.3875,1.3888,1.3902,1.3913,1.3929,1.3943,1.395,1.3951,1.3967,1.3964,1.3964,1.3964,1.3974,1.3974,1.3975,1.3969,1.3969,1.3969,0,0,1.3776,1.3788,1.3798,1.3811,1.3829,1.3841,1.3844,1.3864,1.3872,1.3887,1.3898,1.3909,1.3931,1.3943,1.3952,1.3958,1.3965,1.3962,1.396,1.3969,1.3969,1.3969,1.3973,1.3974,1.3962,1.3962,1.3962,0,1.3767,1.3786,1.3802,1.3814,1.3824,1.3839,1.3849,1.386,1.3882,1.3888,1.389,1.392,1.3931,1.3949,1.3951,1.3957,1.3961,1.3959,1.3968,1.3968,1.3969,1.3972,1.3973,1.3962,1.3962,1.3962,1.3962,0,1.3776,1.3789,1.3795,1.3817,1.3828,1.3839,1.3857,1.3866,1.3875,1.3887,1.3903,1.3918,1.3936,1.3941,1.3948,1.396,1.3961,1.3965,1.3967,1.3969,1.3972,1.3974,1.3961,1.3961,1.3961,1.3962,0,0,1.3761,1.3794,1.3796,1.3808,1.3831,1.3841,1.3854,1.3872,1.3881,1.3896,1.3907,1.3927,1.3932,1.3942,1.3952,1.396,1.3965,1.3963,1.3964,1.3964,1.3981,1.3978,1.3979,1.3971,1.3971,1.3971,1.398,0,1.3762,1.3786,1.3802,1.382,1.3833,1.3849,1.386,1.3876,1.3888,1.3901,1.3915,1.3929,1.3934,1.394,1.3949,1.3963,1.3969,1.3962,1.3982,1.3982,1.3977,1.3981,1.3977,1.3984,1.3981,1.3981,1.3982,0,1.3766,1.3783,1.3803,1.3827,1.3834,1.3843,1.3863,1.3875,1.3894,1.3903,1.3916,1.3927,1.3942,1.3944,1.3965,1.396,1.3969,1.3978,1.3978,1.3981,1.3982,1.3983,1.3987,1.3988,1.3984,1.3983,1.3983,0,1.3755,1.3783,1.3799,1.3808,1.3836,1.3843,1.3856,1.3875,1.3886,1.3903,1.391,1.3928,1.3938,1.3952,1.3968,1.3967,1.3988,1.3991,1.3996,1.3996,1.3999,1.3999,1.4005,1.4005,1.4005,1.4005,1.4005,0,1.3755,1.3767,1.3795,1.3804,1.3819,1.3837,1.3851,1.3864,1.3881,1.3895,1.3909,1.392,1.3941,1.3955,1.3968,1.3985,1.3988,1.3996,1.3999,1.3995,1.3994,1.4001,1.4001,1.4005,1.4005,1.4005,1.4005,0,1.3744,1.3763,1.3782,1.3809,1.3816,1.3825,1.3848,1.3859,1.3873,1.3889,1.3894,1.3916,1.3935,1.3952,1.3976,1.3985,1.4002,1.4006,1.3996,1.3998,1.4002,1.4002,1.4013,1.4016,1.4013,1.4013,1.4013,0,1.3743,1.3753,1.3782,1.3792,1.3804,1.3821,1.3833,1.3852,1.3864,1.3888,1.3896,1.3916,1.3933,1.3961,1.3979,1.3998,1.4003,1.4006,1.4006,1.4002,1.4004,1.4004,1.4006,1.4005,1.4005,1.4005,1.4005,0,1.3739,1.3749,1.3766,1.3787,1.3802,1.3819,1.3837,1.3844,1.3868,1.388,1.39,1.3913,1.394,1.3959,1.3981,1.3994,1.4004,1.4005,1.4008,1.4003,1.3998,1.4002,1.3995,1.4005,1.4005,1.4005,1.4005,1.4005,1.3734,1.3744,1.3767,1.3786,1.3802,1.3819,1.3831,1.3848,1.3865,1.3889,1.3899,1.392,1.3941,1.3971,1.3984,1.4001,1.4003,1.4006,1.4007,1.4007,1.4007,1.3995,1.4004,1.4004,1.4004,1.4005,1.4005,0,1.3731,1.3747,1.3765,1.3791,1.3807,1.3816,1.3837,1.385,1.3868,1.3887,1.3904,1.3928,1.3948,1.3969,1.3991,1.4,1.4005,1.4005,1.4004,1.4008,1.4003,1.4,1.4,1.4,1.4,1.4,1.4,1.4,1.3732,1.3751,1.3764,1.3791,1.3807,1.3828,1.384,1.3856,1.3872,1.3898,1.3916,1.393,1.395,1.3974,1.3993,1.3999,1.4006,1.4005,1.4012,1.4007,1.4007,1.4008,1.4004,1.4006,1.4006,1.4015,1.4015,1.4015]}]]